Time,TemperatureF,DewpointF,PressureIn,WindDirection,WindDirectionDegrees,WindSpeedMPH,WindSpeedGustMPH,Humidity,HourlyPrecipIn,Conditions,Clouds,dailyrainin,SoftwareType,DateUTC
2013-05-01 00:03:00,72.0,70.0,30.00,ESE,113,0.0,0.0,95,0.00,,,1.34,,2013-05-01 04:03:00,
2013-05-01 00:12:00,72.0,70.0,30.00,ESE,113,0.0,0.0,95,0.00,,,1.34,,2013-05-01 04:12:00,
2013-05-01 00:22:00,72.0,70.0,30.00,ESE,113,0.0,0.0,95,0.00,,,1.34,,2013-05-01 04:22:00,
2013-05-01 00:32:00,71.0,69.0,30.00,ESE,113,0.0,0.0,95,0.00,,,1.34,,2013-05-01 04:32:00,
2013-05-01 00:43:00,71.0,69.0,30.00,ESE,113,0.0,0.0,95,0.00,,,1.34,,2013-05-01 04:43:00,
2013-05-01 00:52:00,71.0,69.0,30.00,ESE,113,0.0,0.0,95,0.00,,,1.34,,2013-05-01 04:52:00,
2013-05-01 01:02:00,71.0,69.0,30.00,ESE,113,0.0,0.0,95,0.00,,,1.34,,2013-05-01 05:02:00,
2013-05-01 01:11:00,71.0,69.0,30.00,ESE,113,0.0,0.0,95,0.00,,,1.34,,2013-05-01 05:11:00,
2013-05-01 01:21:00,70.0,68.0,29.99,ESE,113,0.0,0.0,95,0.00,,,1.34,,2013-05-01 05:21:00,
2013-05-01 01:32:00,70.0,69.0,29.99,ESE,113,0.0,0.0,96,0.00,,,1.34,,2013-05-01 05:32:00,
2013-05-01 01:42:00,70.0,69.0,29.98,ESE,113,0.0,0.0,96,0.00,,,1.34,,2013-05-01 05:42:00,
2013-05-01 01:52:00,70.0,69.0,29.98,ESE,113,0.0,0.0,96,0.00,,,1.34,,2013-05-01 05:52:00,
2013-05-01 02:02:00,70.0,69.0,29.98,ESE,113,0.0,0.0,96,0.00,,,1.34,,2013-05-01 06:02:00,
2013-05-01 02:12:00,70.0,69.0,29.98,ESE,113,0.0,0.0,96,0.00,,,1.34,,2013-05-01 06:12:00,
2013-05-01 02:22:00,70.0,69.0,29.97,ESE,113,0.0,0.0,96,0.00,,,1.34,,2013-05-01 06:22:00,
2013-05-01 02:32:00,71.0,70.0,29.96,ESE,113,0.0,0.0,96,0.00,,,1.34,,2013-05-01 06:32:00,
2013-05-01 02:42:00,71.0,70.0,29.96,ESE,113,0.0,0.0,96,0.00,,,1.34,,2013-05-01 06:42:00,
2013-05-01 02:52:00,71.0,70.0,29.96,ESE,113,0.0,0.0,96,0.00,,,1.34,,2013-05-01 06:52:00,
2013-05-01 03:01:00,70.0,69.0,29.96,ESE,113,0.0,0.0,96,0.00,,,1.34,,2013-05-01 07:01:00,
2013-05-01 03:11:00,70.0,69.0,29.96,ESE,113,0.0,0.0,96,0.00,,,1.34,,2013-05-01 07:11:00,
2013-05-01 03:21:00,70.0,69.0,29.95,ESE,113,0.0,0.0,97,0.00,,,1.34,,2013-05-01 07:21:00,
2013-05-01 03:32:00,71.0,70.0,29.95,ESE,113,0.0,0.0,97,0.00,,,1.34,,2013-05-01 07:32:00,
2013-05-01 03:42:00,71.0,70.0,29.95,ESE,113,0.0,0.0,97,0.00,,,1.34,,2013-05-01 07:42:00,
2013-05-01 03:52:00,71.0,70.0,29.95,ESE,113,0.0,0.0,97,0.00,,,1.34,,2013-05-01 07:52:00,
2013-05-01 04:02:00,70.0,69.0,29.94,ESE,113,0.0,0.0,97,0.00,,,1.34,,2013-05-01 08:02:00,
2013-05-01 04:12:00,70.0,69.0,29.94,ESE,113,0.0,0.0,97,0.00,,,1.34,,2013-05-01 08:12:00,
2013-05-01 04:22:00,70.0,69.0,29.95,ESE,113,0.0,0.0,97,0.00,,,1.34,,2013-05-01 08:22:00,
2013-05-01 04:32:00,70.0,69.0,29.95,ESE,113,0.0,0.0,97,0.00,,,1.34,,2013-05-01 08:32:00,
2013-05-01 04:42:00,70.0,69.0,29.95,ESE,113,0.0,0.0,97,0.00,,,1.34,,2013-05-01 08:42:00,
2013-05-01 04:53:00,70.0,69.0,29.95,ESE,113,0.0,0.0,97,0.00,,,1.34,,2013-05-01 08:53:00,
2013-05-01 05:01:00,70.0,69.0,29.95,ESE,113,0.0,0.0,97,0.00,,,1.34,,2013-05-01 09:01:00,
2013-05-01 05:12:00,70.0,69.0,29.95,ESE,113,0.0,0.0,97,0.00,,,1.34,,2013-05-01 09:12:00,
2013-05-01 05:21:00,70.0,69.0,29.95,ESE,113,0.0,0.0,97,0.00,,,1.34,,2013-05-01 09:21:00,
2013-05-01 05:33:00,70.0,69.0,29.95,ESE,113,0.0,0.0,97,0.00,,,1.34,,2013-05-01 09:33:00,
2013-05-01 05:42:00,70.0,69.0,29.95,ESE,113,0.0,0.0,97,0.00,,,1.34,,2013-05-01 09:42:00,
2013-05-01 05:53:00,71.0,70.0,29.94,ESE,113,0.0,0.0,97,0.00,,,1.34,,2013-05-01 09:53:00,
2013-05-01 06:03:00,71.0,70.0,29.95,East,80,0.0,2.0,98,0.00,,,1.34,,2013-05-01 10:03:00,
2013-05-01 06:12:00,71.0,70.0,29.95,East,80,0.0,2.0,98,0.00,,,1.34,,2013-05-01 10:12:00,
2013-05-01 06:22:00,72.0,71.0,29.95,ENE,63,0.0,1.0,97,0.00,,,1.34,,2013-05-01 10:22:00,
2013-05-01 06:33:00,72.0,71.0,29.96,East,94,0.0,2.0,96,0.00,,,1.34,,2013-05-01 10:33:00,
2013-05-01 06:42:00,72.0,71.0,29.96,East,94,0.0,2.0,96,0.00,,,1.34,,2013-05-01 10:42:00,
2013-05-01 06:52:00,72.0,70.0,29.96,East,93,0.0,0.0,95,0.00,,,1.34,,2013-05-01 10:52:00,
2013-05-01 07:03:00,71.0,69.0,29.96,East,93,0.0,0.0,95,0.00,,,1.34,,2013-05-01 11:03:00,
2013-05-01 07:11:00,71.0,69.0,29.96,East,93,0.0,0.0,95,0.00,,,1.34,,2013-05-01 11:11:00,
2013-05-01 07:22:00,72.0,70.0,29.97,East,93,0.0,1.0,95,0.00,,,1.34,,2013-05-01 11:22:00,
2013-05-01 07:32:00,72.0,70.0,29.98,East,87,0.0,1.0,95,0.00,,,1.34,,2013-05-01 11:32:00,
2013-05-01 07:42:00,73.0,71.0,29.98,East,87,0.0,0.0,95,0.00,,,1.34,,2013-05-01 11:42:00,
2013-05-01 07:52:00,73.0,71.0,29.98,East,87,0.0,0.0,95,0.00,,,1.34,,2013-05-01 11:52:00,
2013-05-01 08:01:00,73.0,71.0,29.98,East,87,0.0,0.0,95,0.00,,,1.34,,2013-05-01 12:01:00,
2013-05-01 08:11:00,74.0,72.0,29.98,East,89,0.0,1.0,94,0.00,,,1.34,,2013-05-01 12:11:00,
2013-05-01 08:21:00,74.0,72.0,29.98,East,89,0.0,1.0,94,0.00,,,1.34,,2013-05-01 12:21:00,
2013-05-01 08:32:00,76.0,73.0,29.98,East,86,1.0,3.0,90,0.00,,,1.34,,2013-05-01 12:32:00,
2013-05-01 08:41:00,76.0,73.0,29.98,East,86,1.0,3.0,90,0.00,,,1.34,,2013-05-01 12:41:00,
2013-05-01 08:52:00,78.0,74.0,29.98,East,87,0.0,1.0,87,0.00,,,1.34,,2013-05-01 12:52:00,
2013-05-01 09:01:00,80.0,74.0,29.99,East,86,0.0,2.0,83,0.00,,,1.34,,2013-05-01 13:01:00,
2013-05-01 09:11:00,80.0,74.0,29.99,East,86,0.0,2.0,83,0.00,,,1.34,,2013-05-01 13:11:00,
2013-05-01 09:22:00,81.0,75.0,29.98,SSE,165,0.0,2.0,82,0.00,,,1.34,,2013-05-01 13:22:00,
2013-05-01 09:32:00,82.0,75.0,29.98,SW,216,0.0,3.0,80,0.00,,,1.34,,2013-05-01 13:32:00,
2013-05-01 09:42:00,82.0,75.0,29.98,SW,216,0.0,3.0,80,0.00,,,1.34,,2013-05-01 13:42:00,
2013-05-01 09:52:00,82.0,74.0,29.98,ENE,76,1.0,5.0,78,0.00,,,1.34,,2013-05-01 13:52:00,
2013-05-01 10:02:00,82.0,74.0,30.00,ESE,108,2.0,7.0,76,0.00,,,1.34,,2013-05-01 14:02:00,
2013-05-01 10:11:00,82.0,74.0,30.00,ESE,108,2.0,7.0,76,0.00,,,1.34,,2013-05-01 14:11:00,
2013-05-01 10:22:00,83.0,74.0,30.01,SSW,211,1.0,4.0,74,0.00,,,1.34,,2013-05-01 14:22:00,
2013-05-01 10:32:00,82.0,73.0,30.02,East,91,2.0,5.0,75,0.00,,,1.34,,2013-05-01 14:32:00,
2013-05-01 10:42:00,82.0,73.0,30.02,East,91,2.0,5.0,75,0.00,,,1.34,,2013-05-01 14:42:00,
2013-05-01 10:52:00,82.0,73.0,30.01,ESE,112,2.0,6.0,74,0.00,,,1.34,,2013-05-01 14:52:00,
2013-05-01 11:01:00,83.0,75.0,30.01,SE,125,0.0,6.0,77,0.00,,,1.34,,2013-05-01 15:01:00,
2013-05-01 11:11:00,83.0,75.0,30.01,SE,125,0.0,6.0,77,0.00,,,1.34,,2013-05-01 15:11:00,
2013-05-01 11:21:00,83.0,73.0,30.01,SE,143,1.0,4.0,73,0.00,,,1.34,,2013-05-01 15:21:00,
2013-05-01 11:33:00,84.0,74.0,30.02,SE,128,1.0,5.0,72,0.00,,,1.34,,2013-05-01 15:33:00,
2013-05-01 11:43:00,84.0,74.0,30.02,SE,128,1.0,5.0,72,0.00,,,1.34,,2013-05-01 15:43:00,
2013-05-01 11:53:00,85.0,74.0,30.01,East,82,1.0,5.0,70,0.00,,,1.34,,2013-05-01 15:53:00,
2013-05-01 12:03:00,85.0,74.0,30.01,NE,53,2.0,6.0,70,0.00,,,1.34,,2013-05-01 16:03:00,
2013-05-01 12:12:00,85.0,74.0,30.01,NE,53,2.0,6.0,70,0.00,,,1.34,,2013-05-01 16:12:00,
2013-05-01 12:22:00,85.0,75.0,30.01,SE,129,1.0,6.0,72,0.00,,,1.34,,2013-05-01 16:22:00,
2013-05-01 12:32:00,85.0,75.0,30.00,WSW,237,1.0,7.0,71,0.00,,,0.15,,2013-05-01 16:32:00,
2013-05-01 12:42:00,85.0,75.0,30.00,WSW,237,1.0,7.0,71,0.00,,,0.15,,2013-05-01 16:42:00,
2013-05-01 12:53:00,86.0,74.0,29.99,South,190,1.0,4.0,68,0.00,,,0.15,,2013-05-01 16:53:00,
2013-05-01 13:02:00,86.0,73.0,29.99,East,97,2.0,7.0,66,0.00,,,0.15,,2013-05-01 17:02:00,
2013-05-01 13:12:00,86.0,73.0,29.99,East,97,2.0,7.0,66,0.00,,,0.15,,2013-05-01 17:12:00,
2013-05-01 13:22:00,86.0,74.0,29.99,ENE,72,3.0,7.0,68,0.00,,,0.06,,2013-05-01 17:22:00,
2013-05-01 13:32:00,86.0,74.0,29.98,NE,51,1.0,6.0,68,0.00,,,0.06,,2013-05-01 17:32:00,
2013-05-01 13:42:00,86.0,74.0,29.97,ENE,67,2.0,9.0,68,0.00,,,0.06,,2013-05-01 17:42:00,
2013-05-01 13:52:00,86.0,74.0,29.97,ENE,67,2.0,9.0,68,0.00,,,0.06,,2013-05-01 17:52:00,
2013-05-01 14:01:00,86.0,75.0,29.96,ENE,76,3.0,10.0,69,0.00,,,0.06,,2013-05-01 18:01:00,
2013-05-01 14:11:00,86.0,75.0,29.96,ENE,76,3.0,10.0,69,0.00,,,0.06,,2013-05-01 18:11:00,
2013-05-01 14:22:00,85.0,74.0,29.97,ESE,103,3.0,9.0,69,0.00,,,0.01,,2013-05-01 18:22:00,
2013-05-01 14:32:00,84.0,73.0,29.97,ESE,111,3.0,8.0,70,0.00,,,0.01,,2013-05-01 18:32:00,
2013-05-01 14:42:00,84.0,73.0,29.97,ESE,111,3.0,8.0,70,0.00,,,0.01,,2013-05-01 18:42:00,
2013-05-01 14:52:00,83.0,73.0,29.97,SSE,162,1.0,6.0,72,0.00,,,0.01,,2013-05-01 18:52:00,
2013-05-01 15:02:00,82.0,73.0,29.98,East,95,5.0,10.0,74,0.00,,,0.01,,2013-05-01 19:02:00,
2013-05-01 15:11:00,82.0,73.0,29.98,East,95,5.0,10.0,74,0.00,,,0.01,,2013-05-01 19:11:00,
2013-05-01 15:22:00,80.0,74.0,29.97,East,98,1.0,3.0,82,0.00,,,0.00,,2013-05-01 19:22:00,
2013-05-01 15:32:00,80.0,74.0,29.97,ESE,107,1.0,5.0,82,0.00,,,0.00,,2013-05-01 19:32:00,
2013-05-01 15:43:00,80.0,74.0,29.97,ESE,107,1.0,5.0,82,0.00,,,0.00,,2013-05-01 19:43:00,
2013-05-01 15:52:00,80.0,74.0,29.97,ESE,107,1.0,5.0,82,0.00,,,0.00,,2013-05-01 19:52:00,
2013-05-01 16:02:00,78.0,74.0,29.95,WNW,283,0.0,1.0,87,0.06,,,0.06,,2013-05-01 20:02:00,
2013-05-01 16:11:00,78.0,74.0,29.95,WNW,283,0.0,1.0,87,0.06,,,0.06,,2013-05-01 20:11:00,
2013-05-01 16:22:00,78.0,74.0,29.96,WNW,285,0.0,0.0,87,0.06,,,0.06,,2013-05-01 20:22:00,
2013-05-01 16:32:00,78.0,74.0,29.97,West,276,0.0,1.0,88,0.06,,,0.07,,2013-05-01 20:32:00,
2013-05-01 16:42:00,78.0,74.0,29.97,West,276,0.0,1.0,88,0.06,,,0.07,,2013-05-01 20:42:00,
2013-05-01 16:52:00,77.0,74.0,29.96,NW,319,1.0,3.0,90,0.04,,,0.09,,2013-05-01 20:52:00,
2013-05-01 17:01:00,74.0,71.0,29.97,West,277,4.0,11.0,91,0.15,,,0.21,,2013-05-01 21:01:00,
2013-05-01 17:11:00,74.0,71.0,29.97,West,277,4.0,11.0,91,0.15,,,0.21,,2013-05-01 21:11:00,
2013-05-01 17:22:00,73.0,71.0,29.96,WSW,253,2.0,4.0,93,0.21,,,0.27,,2013-05-01 21:22:00,
2013-05-01 17:32:00,72.0,70.0,29.95,NNE,27,0.0,3.0,93,0.22,,,0.29,,2013-05-01 21:32:00,
2013-05-01 17:43:00,72.0,70.0,29.94,ESE,108,1.0,5.0,94,0.20,,,0.29,,2013-05-01 21:43:00,
2013-05-01 17:53:00,72.0,70.0,29.94,ESE,108,1.0,5.0,94,0.20,,,0.29,,2013-05-01 21:53:00,
2013-05-01 18:03:00,73.0,71.0,29.95,ENE,76,1.0,6.0,94,0.08,,,0.29,,2013-05-01 22:03:00,
2013-05-01 18:12:00,73.0,71.0,29.95,ENE,76,1.0,6.0,94,0.08,,,0.29,,2013-05-01 22:12:00,
2013-05-01 18:23:00,74.0,72.0,29.95,NE,47,0.0,2.0,95,0.02,,,0.29,,2013-05-01 22:23:00,
2013-05-01 18:33:00,74.0,72.0,29.95,ENE,73,0.0,2.0,94,0.00,,,0.29,,2013-05-01 22:33:00,
2013-05-01 18:42:00,74.0,72.0,29.95,ENE,73,0.0,2.0,94,0.00,,,0.29,,2013-05-01 22:42:00,
2013-05-01 18:53:00,74.0,72.0,29.97,ENE,59,1.0,3.0,93,0.00,,,0.29,,2013-05-01 22:53:00,
2013-05-01 19:02:00,74.0,72.0,29.97,NNE,16,0.0,3.0,93,0.00,,,0.29,,2013-05-01 23:02:00,
2013-05-01 19:12:00,74.0,72.0,29.97,NNE,16,0.0,3.0,93,0.00,,,0.29,,2013-05-01 23:12:00,
2013-05-01 19:21:00,73.0,71.0,29.98,NE,39,0.0,2.0,94,0.00,,,0.29,,2013-05-01 23:21:00,
2013-05-01 19:32:00,73.0,71.0,29.97,ENE,77,0.0,4.0,94,0.00,,,0.29,,2013-05-01 23:32:00,
2013-05-01 19:42:00,73.0,71.0,29.97,ENE,77,0.0,4.0,94,0.00,,,0.29,,2013-05-01 23:42:00,
2013-05-01 19:52:00,73.0,71.0,29.96,ENE,77,0.0,1.0,94,0.00,,,0.29,,2013-05-01 23:52:00,
2013-05-01 20:01:00,73.0,71.0,29.97,ENE,65,1.0,3.0,93,0.00,,,0.29,,2013-05-02 00:01:00,
2013-05-01 20:11:00,73.0,71.0,29.97,ENE,65,1.0,3.0,93,0.00,,,0.29,,2013-05-02 00:11:00,
2013-05-01 20:21:00,73.0,71.0,29.97,NE,51,0.0,1.0,93,0.00,,,0.29,,2013-05-02 00:21:00,
2013-05-01 20:32:00,73.0,71.0,29.97,ENE,63,0.0,3.0,93,0.00,,,0.29,,2013-05-02 00:32:00,
2013-05-01 20:42:00,73.0,71.0,29.97,ENE,63,0.0,3.0,93,0.00,,,0.29,,2013-05-02 00:42:00,
2013-05-01 20:52:00,73.0,71.0,29.96,East,80,0.0,3.0,93,0.00,,,0.29,,2013-05-02 00:52:00,
2013-05-01 21:01:00,73.0,71.0,29.98,ENE,72,0.0,1.0,93,0.00,,,0.29,,2013-05-02 01:01:00,
2013-05-01 21:11:00,73.0,71.0,29.98,ENE,72,0.0,1.0,93,0.00,,,0.29,,2013-05-02 01:11:00,
2013-05-01 21:22:00,73.0,71.0,29.98,ENE,76,0.0,1.0,93,0.00,,,0.29,,2013-05-02 01:22:00,
2013-05-01 21:32:00,73.0,71.0,29.98,ENE,58,0.0,2.0,93,0.00,,,0.29,,2013-05-02 01:32:00,
2013-05-01 21:42:00,73.0,71.0,29.98,ENE,58,0.0,2.0,93,0.00,,,0.29,,2013-05-02 01:42:00,
2013-05-01 21:52:00,73.0,71.0,29.98,East,85,0.0,3.0,93,0.00,,,0.29,,2013-05-02 01:52:00,
2013-05-01 22:02:00,73.0,71.0,29.98,East,100,0.0,1.0,93,0.00,,,0.29,,2013-05-02 02:02:00,
2013-05-01 22:12:00,73.0,71.0,29.98,East,100,0.0,1.0,93,0.00,,,0.29,,2013-05-02 02:12:00,
2013-05-01 22:21:00,73.0,71.0,29.98,ENE,70,0.0,1.0,93,0.00,,,0.29,,2013-05-02 02:21:00,
2013-05-01 22:32:00,72.0,70.0,29.98,NNE,32,0.0,1.0,93,0.00,,,0.29,,2013-05-02 02:32:00,
2013-05-01 22:42:00,72.0,70.0,29.98,NNE,32,0.0,1.0,93,0.00,,,0.29,,2013-05-02 02:42:00,
2013-05-01 22:51:00,72.0,70.0,29.98,NNE,32,0.0,1.0,93,0.00,,,0.29,,2013-05-02 02:51:00,
2013-05-01 23:01:00,73.0,71.0,29.98,NE,49,0.0,1.0,94,0.00,,,0.29,,2013-05-02 03:01:00,
2013-05-01 23:11:00,73.0,71.0,29.98,NE,49,0.0,1.0,94,0.00,,,0.29,,2013-05-02 03:11:00,
2013-05-01 23:22:00,73.0,71.0,29.98,NE,49,0.0,1.0,94,0.00,,,0.29,,2013-05-02 03:22:00,
2013-05-01 23:33:00,73.0,71.0,29.98,NE,54,0.0,1.0,94,0.00,,,0.29,,2013-05-02 03:33:00,
2013-05-01 23:43:00,73.0,71.0,29.98,NE,54,0.0,1.0,94,0.00,,,0.29,,2013-05-02 03:43:00,
2013-05-01 23:53:00,73.0,71.0,29.99,West,269,4.0,8.0,94,0.00,,,0.29,,2013-05-02 03:53:00,